Voltar ao catálogo

STARLINK-36794

AtivoComunicaçõesVLEO
NORAD 68955·PAYLOAD·🇺🇸 United States

Lançado May 1, 2026 de Cape Canaveral Space Force Station

Loading…

Próximas Passagens (próximas 24 horas)

TLE

AtualizadoSource: CelesTrak SupGP

Época: Sep 15, 2026, 04:25 UTC

1 68955C 26099E   26258.18451389 -.00019264  00000+0 -56924-3 0  2581
2 68955  53.1573 100.8368 0001213  86.2962 343.5692 15.34396622    19

Acompanhe STARLINK-36794 em tempo real com AllMySat

Download on the App Store